Location: Huntsville
(41.2590°N, 111.7678°W)
Time: 19:16:05
(UTC+00:00)

N. Korean satellite - Pass Details

Date: 06 December 2021
Orbit: 446 x 492 km, 97.3° (Epoch: 18 January)

Event Time Altitude Azimuth Distance (km) Brightness Sun altitude
Rises 11:40:14 0° 35° (NE) 2,456 10.5 -32.7°
Reaches altitude 10° 11:43:21 10° 67° (ENE) 1,576 9.8 -32.1°
Maximum altitude 11:44:46 12° 92° (E) 1,444 9.8 -31.9°
Drops below altitude 10° 11:46:12 10° 117° (ESE) 1,571 9.9 -31.6°
Sets 11:49:16 0° 149° (SSE) 2,439 10.6 -31.0°
